Previsão horária em Jutrzyna

Hoje, 24 Junho, Quinta-feira

Tempo Temperatura Precipitação Vento Pressão Humidade
00:00 +20°C° 0 mm 1 m/s 748 mmHg 94%
01:00 +19°C° 0 mm 1 m/s 748 mmHg 95%
02:00 +19°C° 1.4 mm 1 m/s 748 mmHg 95%
03:00 +20°C° 1.4 mm 1 m/s 747 mmHg 96%
04:00 +18°C° 1.4 mm 0 m/s 747 mmHg 97%
05:00 +20°C° 2.4 mm 1 m/s 747 mmHg 97%
06:00 +20°C° 2.4 mm 1 m/s 746 mmHg 96%
07:00 +20°C° 2.4 mm 2 m/s 746 mmHg 96%
08:00 +21°C° 0.2 mm 2 m/s 746 mmHg 93%
09:00 +23°C° 0.2 mm 2 m/s 746 mmHg 89%
10:00 +24°C° 0.2 mm 2 m/s 746 mmHg 86%
11:00 +25°C° 0.1 mm 2 m/s 746 mmHg 80%
12:00 +26°C° 0.1 mm 2 m/s 746 mmHg 73%
13:00 +28°C° 0.1 mm 3 m/s 746 mmHg 67%
14:00 +27°C° 0 mm 4 m/s 746 mmHg 67%
15:00 +27°C° 0 mm 5 m/s 746 mmHg 68%
16:00 +27°C° 0 mm 6 m/s 746 mmHg 69%
17:00 +23°C° 0 mm 6 m/s 746 mmHg 75%
18:00 +20°C° 0 mm 6 m/s 746 mmHg 82%
19:00 +16°C° 0 mm 6 m/s 746 mmHg 88%
20:00 +16°C° 0.4 mm 5 m/s 746 mmHg 90%
21:00 +15°C° 0.4 mm 4 m/s 747 mmHg 91%
22:00 +16°C° 0.4 mm 3 m/s 747 mmHg 93%
23:00 +16°C° 0.6 mm 3 m/s 747 mmHg 93%

Amanhã, 25 Junho, Sexta-feira

Tempo Temperatura Precipitação Vento Pressão Humidade
00:00 +14°C° 0.6 mm 3 m/s 746 mmHg 94%
01:00 +14°C° 0.6 mm 4 m/s 746 mmHg 95%
02:00 +14°C° 0.2 mm 3 m/s 746 mmHg 94%
03:00 +14°C° 0.2 mm 3 m/s 746 mmHg 94%
04:00 +14°C° 0.2 mm 3 m/s 747 mmHg 94%
05:00 +14°C° 0 mm 3 m/s 747 mmHg 94%
06:00 +14°C° 0 mm 3 m/s 747 mmHg 94%
07:00 +16°C° 0 mm 3 m/s 747 mmHg 93%
08:00 +16°C° 0.1 mm 3 m/s 748 mmHg 91%
09:00 +17°C° 0.1 mm 3 m/s 748 mmHg 88%
10:00 +18°C° 0.1 mm 3 m/s 748 mmHg 85%
11:00 +19°C° 0.1 mm 3 m/s 748 mmHg 80%
12:00 +20°C° 0.1 mm 3 m/s 748 mmHg 74%
13:00 +21°C° 0.1 mm 3 m/s 748 mmHg 69%
14:00 +21°C° 0.2 mm 2 m/s 748 mmHg 68%
15:00 +21°C° 0.2 mm 2 m/s 748 mmHg 68%
16:00 +23°C° 0.2 mm 2 m/s 748 mmHg 67%
17:00 +21°C° 0 mm 2 m/s 747 mmHg 72%
18:00 +20°C° 0 mm 2 m/s 747 mmHg 78%
19:00 +19°C° 0 mm 2 m/s 747 mmHg 83%
20:00 +18°C° 0 mm 2 m/s 747 mmHg 86%
21:00 +18°C° 0 mm 1 m/s 748 mmHg 88%
22:00 +15°C° 0 mm 0 m/s 749 mmHg 91%
23:00 +14°C° 0 mm 0 m/s 749 mmHg 91%

Depois de amanhã, 26 Junho, Sábado

Tempo Temperatura Precipitação Vento Pressão Humidade
00:00 +14°C° 0 mm 0 m/s 748 mmHg 92%
01:00 +14°C° 0 mm 0 m/s 748 mmHg 92%
02:00 +15°C° 0 mm 1 m/s 748 mmHg 92%
03:00 +14°C° 0 mm 1 m/s 748 mmHg 92%
04:00 +14°C° 0 mm 1 m/s 748 mmHg 93%
05:00 +16°C° 0 mm 1 m/s 749 mmHg 88%
06:00 +18°C° 0 mm 1 m/s 749 mmHg 83%
07:00 +18°C° 0 mm 0 m/s 749 mmHg 79%
08:00 +21°C° 0 mm 1 m/s 749 mmHg 74%
09:00 +22°C° 0 mm 1 m/s 749 mmHg 68%
10:00 +24°C° 0 mm 2 m/s 749 mmHg 63%
11:00 +24°C° 0.1 mm 1 m/s 749 mmHg 60%
12:00 +25°C° 0.1 mm 1 m/s 749 mmHg 58%
13:00 +25°C° 0.1 mm 1 m/s 748 mmHg 55%
14:00 +25°C° 0 mm 1 m/s 748 mmHg 55%
15:00 +25°C° 0 mm 1 m/s 748 mmHg 55%
16:00 +26°C° 0 mm 2 m/s 748 mmHg 55%
17:00 +24°C° 0.1 mm 2 m/s 748 mmHg 61%
18:00 +23°C° 0.1 mm 2 m/s 748 mmHg 67%
19:00 +21°C° 0.1 mm 2 m/s 748 mmHg 73%
20:00 +21°C° 0 mm 1 m/s 748 mmHg 76%
21:00 +20°C° 0 mm 1 m/s 748 mmHg 79%
22:00 +18°C° 0 mm 1 m/s 748 mmHg 82%
23:00 +18°C° 0 mm 1 m/s 748 mmHg 84%

27 Junho, Domingo

Tempo Temperatura Precipitação Vento Pressão Humidade
00:00 +18°C° 0 mm 1 m/s 748 mmHg 85%
01:00 +16°C° 0 mm 1 m/s 748 mmHg 86%
02:00 +16°C° 0 mm 1 m/s 748 mmHg 87%
03:00 +16°C° 0 mm 1 m/s 748 mmHg 87%
04:00 +16°C° 0 mm 1 m/s 748 mmHg 88%
05:00 +18°C° 0 mm 1 m/s 748 mmHg 83%
06:00 +20°C° 0 mm 1 m/s 748 mmHg 79%
07:00 +21°C° 0 mm 1 m/s 748 mmHg 74%
08:00 +23°C° 0 mm 1 m/s 748 mmHg 68%
09:00 +24°C° 0 mm 2 m/s 748 mmHg 63%
10:00 +26°C° 0 mm 2 m/s 748 mmHg 57%
11:00 +26°C° 0 mm 2 m/s 748 mmHg 55%
12:00 +27°C° 0 mm 2 m/s 748 mmHg 52%
13:00 +28°C° 0 mm 2 m/s 748 mmHg 49%
14:00 +28°C° 0 mm 2 m/s 748 mmHg 48%
15:00 +28°C° 0 mm 2 m/s 748 mmHg 48%
16:00 +28°C° 0 mm 2 m/s 747 mmHg 47%
17:00 +27°C° 0 mm 2 m/s 747 mmHg 54%
18:00 +26°C° 0 mm 2 m/s 747 mmHg 61%
19:00 +25°C° 0 mm 2 m/s 747 mmHg 67%
20:00 +23°C° 0 mm 2 m/s 747 mmHg 71%
21:00 +21°C° 0 mm 2 m/s 747 mmHg 74%
22:00 +19°C° 0 mm 2 m/s 747 mmHg 77%
23:00 +19°C° 0 mm 2 m/s 747 mmHg 78%

28 Junho, Segunda-feira

Tempo Temperatura Precipitação Vento Pressão Humidade
00:00 +18°C° 0 mm 2 m/s 747 mmHg 79%
01:00 +18°C° 0 mm 2 m/s 747 mmHg 80%
02:00 +18°C° 0 mm 2 m/s 747 mmHg 80%
03:00 +17°C° 0 mm 2 m/s 747 mmHg 81%
04:00 +18°C° 0 mm 1 m/s 747 mmHg 81%
05:00 +19°C° 0 mm 2 m/s 747 mmHg 77%
06:00 +20°C° 0 mm 2 m/s 747 mmHg 73%
07:00 +23°C° 0 mm 2 m/s 747 mmHg 70%
08:00 +24°C° 0 mm 2 m/s 747 mmHg 65%
09:00 +26°C° 0 mm 2 m/s 747 mmHg 61%
10:00 +28°C° 0 mm 2 m/s 747 mmHg 57%
11:00 +29°C° 0 mm 2 m/s 747 mmHg 54%
12:00 +30°C° 0 mm 2 m/s 747 mmHg 50%
13:00 +31°C° 0 mm 2 m/s 746 mmHg 47%
14:00 +31°C° 0 mm 2 m/s 746 mmHg 46%
15:00 +32°C° 0 mm 2 m/s 746 mmHg 46%
16:00 +32°C° 0 mm 1 m/s 746 mmHg 45%
17:00 +31°C° 0 mm 1 m/s 746 mmHg 52%
18:00 +29°C° 0 mm 2 m/s 745 mmHg 58%
19:00 +28°C° 0 mm 2 m/s 745 mmHg 65%
20:00 +27°C° 0 mm 2 m/s 745 mmHg 68%
21:00 +25°C° 0 mm 2 m/s 745 mmHg 71%
22:00 +23°C° 0 mm 2 m/s 745 mmHg 73%
23:00 +23°C° 0 mm 2 m/s 745 mmHg 74%

29 Junho, Terça-feira

Tempo Temperatura Precipitação Vento Pressão Humidade
00:00 +21°C° 0 mm 2 m/s 745 mmHg 75%
01:00 +21°C° 0 mm 2 m/s 745 mmHg 77%
02:00 +21°C° 0 mm 2 m/s 745 mmHg 75%
03:00 +21°C° 0 mm 2 m/s 745 mmHg 74%
04:00 +23°C° 0 mm 2 m/s 745 mmHg 72%
05:00 +23°C° 0 mm 2 m/s 745 mmHg 72%
06:00 +24°C° 0 mm 2 m/s 745 mmHg 72%
07:00 +25°C° 0 mm 2 m/s 745 mmHg 72%
08:00 +26°C° 0 mm 2 m/s 745 mmHg 65%
09:00 +28°C° 0 mm 2 m/s 745 mmHg 59%
10:00 +30°C° 0 mm 3 m/s 745 mmHg 52%
11:00 +31°C° 0 mm 3 m/s 745 mmHg 49%
12:00 +33°C° 0 mm 3 m/s 745 mmHg 45%
13:00 +34°C° 0 mm 3 m/s 745 mmHg 42%
14:00 +34°C° 0 mm 3 m/s 745 mmHg 43%
15:00 +35°C° 0 mm 3 m/s 745 mmHg 43%
16:00 +35°C° 0 mm 3 m/s 745 mmHg 44%
17:00 +32°C° 0 mm 2 m/s 745 mmHg 52%
18:00 +30°C° 0 mm 2 m/s 745 mmHg 61%
19:00 +28°C° 0 mm 2 m/s 745 mmHg 69%
20:00 +27°C° 0 mm 2 m/s 745 mmHg 74%
21:00 +25°C° 0 mm 2 m/s 745 mmHg 78%
22:00 +24°C° 0 mm 1 m/s 745 mmHg 83%
23:00 +23°C° 0.1 mm 1 m/s 745 mmHg 86%
Mostrar mais

Necessitamos do seu Consentimento

A Meteoprog e os seus Fornecedores de Serviços podem armazenar e aceder a dados pessoais como cookies, identificadores do dispositivo ou outras tecnologias semelhantes existentes no seu dispositivo e processar estes dados para personalizar conteúdos e anúncios, assim como funcionalidades nas redes sociais e análise de tráfego.

  • Armazenar e/ou aceder a informações no seu dispositivo

    Os cookies, identificadores do dispositivo ou outras informações podem ser armazenados ou acedidos no seu dispositivo, para os fins acima indicados.

  • Anúncios e conteúdos personalizados, medição de anúncios e conteúdos, dados sobre o público-alvo e desenvolvimento de produtos

    Os anúncios e os conteúdos podem ser personalizados com base num perfil. Podem ser adicionados dados adicionais para uma maior personalização dos anúncios e dos conteúdos. A eficácia dos anúncios e dos conteúdos pode ser medida. Podem ser obtidas informações sobre o público que visualizou os anúncios e os conteúdos. Estes dados podem ser usados para desenvolver ou melhorar sistemas, softwares ou a experiência do utilizador.

Ao clicar em "Eu concordo”, permitirá o uso de cookies, identificadores do dispositivo e web beacons mencionados ou outras tecnologias semelhantes. As configurações do navegador do seu dispositivo podem ser alteradas.

Para certos fins, podem ser invocados interesses legítimos ao invés de consentimento. Pode ler mais informação sobre este assunto na nossa Política de Privacidade e Cookies.